{"data":{"norad_id":64371,"epoch":"2026-09-19T09:25:04.624896Z","epoch_age_seconds":230077,"freshness":"STALE","line1":"1 64371U 25127B   26262.39241464  .00135207  00000+0  10409-2 0  9992","line2":"2 64371  43.0003 357.2433 0004869 296.4270  63.6098 15.70811075 73969","mean_motion":15.70811075,"eccentricity":0.0004869,"inclination_deg":43.0003,"raan_deg":357.2433,"arg_perigee_deg":296.427,"mean_anomaly_deg":63.6098,"bstar":0.0010409,"rev_number":7396,"period_min":91.672386508989,"perigee_km":353.29860329568,"apogee_km":359.8568685055,"semimajor_km":6734.7147359006,"source":"CELESTRAK","updated_at":"2026-09-21T09:00:35.321751Z"}}